AirNav   ProFlight Series 2 Aviation Headset
 
 987 users online  

MI90 Baldwin Lake Heliport
Union, Michigan, USA

GOING TO UNION?


FAA INFORMATION EFFECTIVE 18 JUNE 2020

Location

FAA Identifier: MI90
Lat/Long: 41-47-25.1770N 085-50-19.9880W
41-47.419617N 085-50.333133W
41.7903269,-85.8388856
(estimated)
Elevation: 850 ft. / 259 m (estimated)
Variation: 03W (1985)
From city: 1 mile E of UNION, MI
Time zone: UTC -4 (UTC -5 during Standard Time)
Zip code: 49130

Heliport Operations

Heliport use: Private use. Permission required prior to landing
Activation date: 02/1972
Control tower: no
ARTCC: CHICAGO CENTER
FSS: LANSING FLIGHT SERVICE STATION
OR LOCAL CALL 293-8916.
Attendance: CONTINUOUS
Wind indicator: yes
Segmented circle: yes

Heliport Communications

WX AWOS-3 at EKM (8 nm SW): 124.475 (574-264-9002)
WX AWOS-3 at HAI (15 nm NE): 119.975 (269-273-6705)
WX ASOS at GSH (16 nm S): 121.45 (574-642-4231)
WX AWOS-3 at IRS (18 nm E): 121.325 (269-659-8715)

Nearby radio navigation aids

VOR radial/distance  VOR name  Freq  Var
GSHr028/18.0GOSHEN VORTAC113.7000E
GIJr087/21.5GIPPER VORTAC115.4000E
ELXr149/24.7KEELER VOR/DME116.6000E
AZOr206/29.7KALAMAZOO VOR/DME109.0001W
OLKr338/(36.0)WEBSTER LAKE VOR110.4003W

 
NDB name  Hdg/Dist  Freq  Var  ID
STURGIS270/18.238204WIRS .. .-. ...

Heliport Services

Airframe service: NONE
Powerplant service: NONE

Runway Information

Helipad H1

Dimensions: 30 x 30 ft. / 9 x 9 m
CONC TOUCHDOWN WITHIN A 500 X 500 TURF LANDING AREA.
Surface: concrete
Latitude: 41-47.419617N
Longitude: 085-50.333133W
Elevation: 850.0 ft.
Traffic pattern: leftleft

Heliport Ownership and Management from official FAA records

Ownership: Privately-owned
Owner: REED M. POWERS
14163 US 12
UNION, MI 49130
Phone 616-641-7260
Manager: BEN R. GAMES
14163 US 12
UNION, MI 49130
Phone 312-448-2022

Heliport Operational Statistics

Aircraft based on the field: 1
Helicopters: 1
    

Additional Remarks

A52-H1 TREES LOCATED OVER 100' EITHER SIDE OF APPROACH 220DEG & 140DEG.
HELIPORT USED FOR ARNG TRNG.LETTER OF AGREEMENT GIVEN TO AVIATION OFFICER,MI.DEPT.OF MILITARY AFFAIRS.
FOR CD CTC CHICAGO ARTCC AT 630-906-8921.

Instrument Procedures

There are no published instrument procedures at MI90.

Some nearby airports with instrument procedures:

KEKM - Elkhart Municipal Airport (8 nm SW)
KHAI - Three Rivers Municipal Dr Haines Airport (15 nm NE)
KGSH - Goshen Municipal Airport (16 nm S)
3TR - Jerry Tyler Memorial Airport (17 nm W)
C91 - Dowagiac Municipal Airport (18 nm NW)
KIRS - Kirsch Municipal Airport (18 nm E)
 
Loc | Ops | Rwys | IFR | FBO | Links
Com | Nav | Svcs | Stats | Notes
Area around MI90 (Baldwin Lake Heliport)
 
Road maps at: MapQuest Bing Google
 
Aerial photo
No photo
 
Sectional chart

 
Airport distance calculator
Flying to Baldwin Lake Heliport? Find the distance to fly.

From to MI90

Sunrise and sunset
Times for 07-Jul-2020
 Local
(UTC-4)
 Zulu
(UTC)
Morning civil twilight05:4409:44
Sunrise06:1710:17
Sunset21:1901:19
Evening civil twilight21:5301:53

Current date and time
Zulu (UTC)  08-Jul-2020 00:40:04
Local (UTC-4)  07-Jul-2020 20:40:04
 
METAR
KEKM 
8nm SW 
072350Z 21004KT 10SM CLR 28/21 A2994 RMK AO2
KHAI 
15nm NE 
080015Z AUTO 12003KT 10SM SCT060 SCT075 30/19 A2994 RMK AO2 T03010193
KGSH 
16nm S 
072353Z AUTO 29005KT 10SM CLR 29/20 A2993 RMK AO2 SLP129 T02890200 10339 20267 56007
KIRS 
18nm E 
080015Z AUTO 35003KT 10SM CLR 28/20 A2994 RMK AO2 T02750200
TAF
KSBN 
22nm W 
071720Z 0718/0818 26005KT P6SM VCTS SCT060CB FM080000 00000KT P6SM FEW250
NOTAMs
Click for the latest NOTAMs
NOTAMs are issued by the DoD/FAA and will open in a separate window not controlled by AirNav.

 

 
 

Would you like to see your business listed on this page?

 If your business provides an interesting product or service to pilots, flight crews, aircraft, or users of the Baldwin Lake Heliport, you should consider listing it here.  To start the listing process, click on the button below
 
Add a business
 

Other Pages about Baldwin Lake Heliport

Update a link
 
Copyright © AirNav, LLC. All rights reserved. Privacy Policy  Contact